DLH5AH EHAM-EDDM

Flight info

Callsign DLH5AH
Flight time N/A
Altitude 35000
Route EDUPO Z739 MISGO DCT DOJOH DCT DODEN/N0451F330 DCT TABUM DCT BOMBI T104 HAREM/N0434F270 T104 ROKIL ROKIL1B
Aircraft A320/M-SDE3FGHIRWY/LB1

Departure

Time 2026-05-05 18:13
Airport Amsterdam Airport Schiphol (EHAM)

Arrival

Time N/A
Airport Munich Airport (EDDM)
Time Latitude Longitude Altitude Speed Heading
2026-05-05 17:22 52.30438 4.76312 -2 ft 0 kts 238°
2026-05-05 18:04 52.30444 4.76326 -2 ft 2 kts 233°
2026-05-05 18:04 52.30450 4.76343 -2 ft 2 kts 245°
2026-05-05 18:04 52.30458 4.76366 -3 ft 2 kts 223°
2026-05-05 18:04 52.30471 4.76381 -3 ft 2 kts 193°
2026-05-05 18:05 52.30487 4.76384 -3 ft 2 kts 163°
2026-05-05 18:05 52.30493 4.76381 -2 ft 0 kts 152°
2026-05-05 18:07 52.30447 4.76425 -2 ft 13 kts 146°
2026-05-05 18:07 52.30372 4.76501 -2 ft 12 kts 150°
2026-05-05 18:07 52.30299 4.76517 -2 ft 10 kts 211°
2026-05-05 18:08 52.30260 4.76434 -2 ft 9 kts 236°
2026-05-05 18:08 52.30212 4.76306 -2 ft 19 kts 238°
2026-05-05 18:08 52.30126 4.76082 -2 ft 24 kts 238°
2026-05-05 18:08 52.30042 4.75861 -2 ft 22 kts 238°
2026-05-05 18:09 52.29965 4.75659 -2 ft 20 kts 238°
2026-05-05 18:09 52.29887 4.75459 -2 ft 23 kts 238°
2026-05-05 18:09 52.29836 4.75228 -2 ft 22 kts 287°
2026-05-05 18:09 52.29929 4.75030 -2 ft 22 kts 312°
2026-05-05 18:10 52.30035 4.74837 -2 ft 23 kts 311°
2026-05-05 18:10 52.30138 4.74650 3 ft 21 kts 312°
2026-05-05 18:10 52.30228 4.74477 8 ft 20 kts 310°
2026-05-05 18:10 52.30308 4.74327 2 ft 17 kts 311°
2026-05-05 18:11 52.30342 4.74263 -2 ft 0 kts 311°
2026-05-05 18:11 52.30357 4.74235 -2 ft 10 kts 310°
2026-05-05 18:11 52.30363 4.74118 -2 ft 11 kts 239°
2026-05-05 18:11 52.30290 4.74002 -2 ft 23 kts 221°
2026-05-05 18:12 52.30188 4.73792 -3 ft 15 kts 282°
2026-05-05 18:12 52.30258 4.73736 -5 ft 10 kts
2026-05-05 18:12 52.30261 4.73736 -5 ft 0 kts
2026-05-05 18:12 52.30268 4.73737 -5 ft 6 kts
2026-05-05 18:13 52.30502 4.73758 -3 ft 68 kts
2026-05-05 18:13 52.31186 4.73824 -3 ft 126 kts
2026-05-05 18:13 52.32171 4.73914 335 ft 143 kts
2026-05-05 18:13 52.33138 4.74154 1103 ft 141 kts 18°
2026-05-05 18:14 52.34112 4.74688 1617 ft 157 kts 21°
2026-05-05 18:14 52.35217 4.75340 1978 ft 181 kts 21°
2026-05-05 18:14 52.36479 4.76078 2393 ft 204 kts 21°
2026-05-05 18:14 52.37851 4.77052 2832 ft 227 kts 35°
2026-05-05 18:15 52.39021 4.78886 3541 ft 239 kts 45°
2026-05-05 18:15 52.40189 4.80893 4425 ft 244 kts 45°
2026-05-05 18:15 52.41379 4.82919 5281 ft 250 kts 46°
2026-05-05 18:15 52.42280 4.85400 6028 ft 263 kts 75°
2026-05-05 18:16 52.42426 4.88413 6746 ft 273 kts 87°
2026-05-05 18:16 52.42431 4.91554 7566 ft 278 kts 88°
2026-05-05 18:16 52.42375 4.94742 8377 ft 283 kts 96°
2026-05-05 18:16 52.41819 4.97872 9193 ft 290 kts 116°
2026-05-05 18:17 52.40695 5.00613 10034 ft 292 kts 134°
2026-05-05 18:17 52.39106 5.02787 10512 ft 308 kts 144°
2026-05-05 18:17 52.37293 5.04895 10760 ft 331 kts 145°
2026-05-05 18:17 52.35340 5.07130 11069 ft 350 kts 145°
2026-05-05 18:18 52.33384 5.09557 11679 ft 357 kts 138°
2026-05-05 18:18 52.31657 5.12524 12351 ft 362 kts 132°
2026-05-05 18:18 52.29964 5.15610 13054 ft 366 kts 131°
2026-05-05 18:18 52.28256 5.18717 13773 ft 370 kts 132°